Weather History for KNEW - October, 2012

Change the Weather History Date:

Wednesday, October 3, 2012

  Actual Average Record
Temperature  
Mean Temperature 74 °F 75 °F  
Max Temperature 85 °F 83 °F 92 °F (2004)
Min Temperature 63 °F 67 °F 45 °F (1984)
Degree Days  
Heating Degree Days 0 0  
Month to date heating degree days 0 0  
Since 1 July heating degree days 0 0  
Cooling Degree Days 9 10  
Month to date cooling degree days 18 32  
Year to date cooling degree days 3159 2721  
Growing Degree Days 27 (Base 50)    
Moisture  
Dew Point 63 °F    
Average Humidity 71    
Maximum Humidity 93    
Minimum Humidity 48    
Precipitation  
Precipitation 0.00 in 0.11 in 2.54 in (2002)
Month to date precipitation T 0.34  
Year to date precipitation 60.25 49.52  
Snow  
Snow 0.00 in - - ()
Month to date snowfall 0.0  
Since 1 July snowfall 0.0  
Since 1 September snowfall 0.0  
Snow Depth 0.00 in    
Sea Level Pressure  
Sea Level Pressure 30.04 in    
Wind  
Wind Speed 7 mph (SE)    
Max Wind Speed 16 mph    
Max Gust Speed 26 mph    
Visibility 10 miles    
Events      
T = Trace of Precipitation, MM = Missing Value Source: NWS Daily Summary

Daily Weather History Graph

Daily Weather History Graph

Search for Another Location

Airport or City:

Trip Planner

Search our weather history database for the weather conditions in past years. The results will help you decide how hot, cold, wet, or windy it might be!

Date:

Astronomy

Oct. 03, 2012 Rise Set
Actual Time 6:54 AM CDT 6:42 PM CDT
Civil Twilight 6:31 AM CDT 7:06 PM CDT
Nautical Twilight 6:03 AM CDT 7:34 PM CDT
Astronomical Twilight 5:35 AM CDT 8:01 PM CDT
Moon 8:52 PM CDT (10/3) 10:01 AM CDT (10/3)
Length of Visible Light 12h 35m
Length of Day
11h 47m
Waning Gibbous, 88% of the Moon is Illuminated
Oct 3
Waning Gibbous
Oct 8
Last Quarter
Oct 15
New
Oct 21
First Quarter
Oct 29
Full

Hourly Weather History & Observations

Time (CDT) Temp. Heat Index Dew Point Humidity Pressure Visibility Wind Dir Wind Speed Gust Speed Precip Events Conditions
12:53 AM 71.1 °F - 60.1 °F 68% 29.99 in 10.0 mi South 4.6 mph - N/A   Clear
1:53 AM 70.0 °F - 60.1 °F 71% 29.99 in 8.0 mi SSE 5.8 mph - N/A   Clear
2:53 AM 70.0 °F - 62.1 °F 76% 29.98 in 9.0 mi SSE 5.8 mph - N/A   Clear
3:53 AM 70.0 °F - 62.1 °F 76% 29.98 in 8.0 mi SE 6.9 mph - N/A   Clear
4:53 AM 70.0 °F - 63.0 °F 78% 29.99 in 8.0 mi SE 5.8 mph - N/A   Clear
5:53 AM 71.1 °F - 63.0 °F 75% 30.00 in 9.0 mi SE 6.9 mph - N/A   Partly Cloudy
6:53 AM 73.0 °F - 63.0 °F 71% 30.01 in 10.0 mi ESE 8.1 mph - N/A   Clear
7:53 AM 73.9 °F - 64.0 °F 71% 30.03 in 9.0 mi ESE 8.1 mph - N/A   Mostly Cloudy
8:53 AM 77.0 °F - 64.9 °F 66% 30.05 in 10.0 mi ESE 9.2 mph - N/A   Clear
9:53 AM 79.0 °F - 63.0 °F 58% 30.06 in 10.0 mi SE 11.5 mph - N/A   Clear
10:53 AM 82.0 °F 83.0 °F 62.1 °F 51% 30.06 in 10.0 mi ESE 12.7 mph - N/A   Clear
11:53 AM 82.9 °F 83.3 °F 61.0 °F 47% 30.06 in 10.0 mi SE 10.4 mph - N/A   Clear
12:53 PM 84.0 °F 84.4 °F 61.0 °F 46% 30.05 in 10.0 mi SE 9.2 mph - N/A   Partly Cloudy
1:53 PM 84.9 °F 85.4 °F 62.1 °F 46% 30.04 in 10.0 mi ESE 9.2 mph - N/A   Partly Cloudy
2:53 PM 84.2 °F 85.0 °F 62.6 °F 48% 30.04 in 10.0 mi SSE 11.5 mph - N/A   Mostly Cloudy
3:53 PM 84.9 °F 85.9 °F 63.0 °F 48% 30.02 in 10.0 mi SSE 12.7 mph - N/A   Clear
4:53 PM 84.0 °F 84.9 °F 63.0 °F 49% 30.03 in 10.0 mi SSE 12.7 mph - N/A   Partly Cloudy
5:53 PM 81.0 °F 82.2 °F 63.0 °F 54% 30.04 in 10.0 mi SSE 10.4 mph - N/A   Clear
6:53 PM 79.0 °F - 64.0 °F 60% 30.06 in 10.0 mi SE 6.9 mph - N/A   Clear
7:53 PM 78.1 °F - 64.0 °F 62% 30.07 in 10.0 mi SE 9.2 mph - N/A   Clear
8:53 PM 77.0 °F - 64.9 °F 66% 30.09 in 10.0 mi SE 8.1 mph - N/A   Clear
9:53 PM 75.9 °F - 64.9 °F 69% 30.10 in 10.0 mi SE 6.9 mph - N/A   Clear
10:53 PM 75.9 °F - 66.0 °F 71% 30.11 in 10.0 mi SE 5.8 mph - N/A   Clear